Location: Munkebjergskolens Observatorium
(55.3864°N, 10.3987°E)
Time: 04:24:26
(UTC+02:00)

KKS-1 - Pass Details

Date: 06 April 2023
Orbit: 633 x 644 km, 98.2° (Epoch: 31 May)

Event Time Altitude Azimuth Distance (km) Brightness Sun altitude
Rises 22:59:59 0° 24° (NNE) 2,945 ? -21.5°
Reaches altitude 10° 23:02:37 10° 39° (NE) 2,032 ? -21.7°
Enters shadow 23:04:54 20° 68° (ENE) 1,467 ? -21.9°
